Regional Weather Roundup
Issued by NWS

Home | Current Version | Previous Version | Graphics & Text | Print | Product List | Glossary Off
Versions: 1 2 3 4 5 6 7 8 9 10 11 12 13 14 15 16 17 18 19 20 21 22 23 24 25 26 27 28 29 30 31 32 33 34 35 36 37 38 39 40 41 42 43 44 45 46 47 48 49 50

000
ASUS43 KDMX 032307
RWRIA

WEATHER ROUNDUP FOR IOWA
NATIONAL WEATHER SERVICE DES MOINES IA
600 PM CDT MON AUG 03 2015

NOTE: "FAIR" INDICATES FEW OR NO CLOUDS BELOW 12,000 FEET WITH NO
SIGNIFICANT WEATHER AND/OR OBSTRUCTIONS TO VISIBILITY.

* - THESE STATIONS ARE NOT NWS STATIONS...THUS NOT UNDER NWS
QUALITY CONTROL.  THEY ALSO DO NOT REPORT WEATHER SUCH
AS PRECIPITATION OR FOG.

IAZ001>003-012>014-020>022-031>034-043>046-040000-
   NORTHWEST IOWA

CITY           SKY/WX    TMP DP  RH WIND       PRES   REMARKS
CARROLL *      SUNNY     77  59  53 VRB3      29.96S
CHEROKEE *     SUNNY     79  59  50 NW5       29.96F HX  80
DENISON *      SUNNY     77  61  57 CALM      29.95S
LE MARS *      SUNNY     79  61  53 W3        29.97S HX  80
ORANGE CITY *  SUNNY     77  59  53 W5        29.97S
SHELDON *      MOSUNNY   79  59  50 W6        29.95F HX  80
SIOUX CITY     SUNNY     82  56  40 CALM      29.95F HX  82
SPENCER        MOSUNNY   81  55  40 VRB7      29.96F HX  81
STORM LAKE *   SUNNY     77  57  50 VRB7      29.98S
$$

IAZ055>058-069>071-079>083-090>094-040000-
   SOUTHWEST IOWA

CITY           SKY/WX    TMP DP  RH WIND       PRES   REMARKS
ATLANTIC *     PTSUNNY   77  64  65 NE5       29.96S
AUDUBON *      SUNNY     79  63  57 N3        29.98S HX  80
CLARINDA *     SUNNY     81  68  65 NE6       29.95F HX  83
COUNCIL BLFS * SUNNY     79  64  61 NE6       29.96F HX  81
CRESTON *      PTSUNNY   77  61  57 CALM      29.97S
HARLAN  *      MOSUNNY   77  66  69 CALM      29.99F
LAMONI         LGT RAIN  81  65  58 N5        29.95S HX  83
RED OAK *      SUNNY     79  64  61 NE7       29.95F HX  81
SHENANDOAH *   SUNNY     79  66  65 NE6       29.94F HX  81
$$

IAZ047>049-059>061-072>074-084-040000-
   CENTRAL IOWA

CITY           SKY/WX    TMP DP  RH WIND       PRES   REMARKS
AMES           SUNNY     79  56  45 N8        29.94F HX  80
ANKENY *       SUNNY     79  57  47 CALM      29.94S HX  80
CHARITON *     SUNNY     79  61  53 N5        29.94S HX  80
DES MOINES     MOSUNNY   82  55  39 N9        29.93S HX  81
GRINNELL*      SUNNY     75  57  53 NW7       29.94F
KNOXVILLE *    SUNNY     79  57  47 N5        29.93S HX  80
MARSHALLTOWN   SUNNY     78  56  46 W9        29.93F
PELLA *        SUNNY     79  63  57 N5        29.95R HX  80
PERRY *          N/A     79  61  53 CALM      29.96S HX  80
$$

IAZ004>006-015-016-023>025-035-036-040000-
   NORTH CENTRAL IOWA

CITY           SKY/WX    TMP DP  RH WIND       PRES   REMARKS
ALGONA *       SUNNY     79  55  44 NW9       29.95S
CLARION *      SUNNY     77  55  47 NW10      29.94F
ESTHERVILLE    PTSUNNY   79  56  45 NW10      29.95S HX  80
FORT DODGE *   SUNNY     79  55  44 NW6       29.96S
MASON CITY     SUNNY     79  56  45 NW13      29.95S HX  80
FOREST CITY *  SUNNY     73  54  49 NW10      29.94F
IOWA FALLS *     N/A     79  54  41 W7        29.96S
$$

IAZ007>011-017>019-026>030-037>042-050>054-066-040000-
   NORTHEAST IOWA

CITY           SKY/WX    TMP DP  RH WIND       PRES   REMARKS
CEDAR RAPIDS   SUNNY     77  58  51 NW9       29.91F
CHARLES CITY * SUNNY     75  55  50 NW10G18   29.93F
CLINTON *      SUNNY     79  57  47 W8        29.92F HX  80
DECORAH *      SUNNY     75  54  46 NW9       29.91S
DUBUQUE        SUNNY     77  54  44 W14       29.91S
MONTICELLO *   SUNNY     79  54  41 W13       29.91S
OELWEIN *      SUNNY     77  55  47 W9        29.93S
WATERLOO       SUNNY     78  56  46 NW10      29.91F
$$

IAZ064-065-067-068-078-040000-
   EAST CENTRAL IOWA

CITY           SKY/WX    TMP DP  RH WIND       PRES   REMARKS
DAVENPORT      SUNNY     79  55  43 W9        29.90F
IOWA CITY      SUNNY     80  51  36 NW9       29.92F HX  80
MT. PLEASANT * SUNNY     82  50  32 NW8       29.92R HX  81
MUSCATINE *    SUNNY     81  54  39 NW7       29.90F HX  80
QUAD CITIES    SUNNY     81  52  36 W12       29.89F HX  80
$$

IAZ062-063-075>077-085>089-095>099-040000-
   SOUTHEAST IOWA

CITY           SKY/WX    TMP DP  RH WIND       PRES   REMARKS
BURLINGTON     SUNNY     80  61  52 NW7       29.91S HX  81
FAIRFIELD *    SUNNY     79  59  50 NW6       29.92F HX  80
FORT MADISON * SUNNY     79  61  53 W6        29.92S HX  80
KEOKUK *       SUNNY     82  61  47 W3        29.90F HX  83
OSKALOOSA *      N/A     79  61  53 CALM      29.93S HX  80
CENTERVILLE *  SUNNY     77  61  57 NW5       29.95S
OTTUMWA        SUNNY     79  61  53 N10       29.90F HX  80
WASHINGTON *   SUNNY     79  61  53 NW6       29.93S HX  80
$$

ABBREVIATIONS USED IN REMARKS
   TC - TEMPERATURES IN CELSIUS
  WCI - WIND CHILL INDEX
   HX - HEAT INDEX
  VSB - VISIBILITY
$$




USA.gov is the U.S. government's official web portal to all federal, state and local government web resources and services.